Glendive, MT

3:04 PM MST on January 19, 2017 (GMT -0700)
Dawson Community

Weather History for KGDV - September, 2013

Change the Weather History Date:

Tuesday, September 3, 2013

  Actual Average Record
Temperature  
Mean Temperature 82 °F -  
Max Temperature 96 °F 78 °F 98 °F (2002)
Min Temperature 69 °F 51 °F 37 °F (2008)
Cooling Degree Days 18    
Growing Degree Days 32 (Base 50)    
Moisture  
Dew Point 53 °F    
Average Humidity 42    
Maximum Humidity 64    
Minimum Humidity 19    
Precipitation  
Precipitation 0.00 in - - ()
Sea Level Pressure  
Sea Level Pressure 29.96 in    
Wind  
Wind Speed 6 mph (SE)    
Max Wind Speed 14 mph    
Max Gust Speed 18 mph    
Visibility 10 miles    
Events      
Averages and records for this station are not official NWS values.
T = Trace of Precipitation, MM = Missing Value Source: NWS Daily Summary

Daily Weather History Graph

Daily Weather History Graph

Search for Another Location

Airport or City:

Trip Planner

Search our weather history database for the weather conditions in past years. The results will help you decide how hot, cold, wet, or windy it might be!

Date:

Astronomy

Sep. 03, 2013 Rise Set
Actual Time 6:21 AM MDT 7:34 PM MDT
Civil Twilight 5:50 AM MDT 8:05 PM MDT
Nautical Twilight 5:12 AM MDT 8:43 PM MDT
Astronomical Twilight 4:31 AM MDT 9:23 PM MDT
Moon 4:34 AM MDT (9/3) 6:24 PM MDT (9/3)
Length of Visible Light 14h 15m
Length of Day
13h 13m
Waning Crescent, 3% of the Moon is Illuminated
Sep 3
Waning Crescent
Sep 5
New
Sep 12
First Quarter
Sep 19
Full
Sep 26
Last Quarter

Hourly Weather History & Observations

Time (MDT) Temp. Heat Index Dew Point Humidity Pressure Visibility Wind Dir Wind Speed Gust Speed Precip Events Conditions
12:15 AM 75.2 °F - 53.6 °F 47% 29.93 in 10.0 mi South 5.8 mph - N/A   Clear
12:35 AM 75.2 °F - 55.4 °F 50% 29.93 in 10.0 mi SSE 8.1 mph - N/A   Clear
12:55 AM 77.0 °F - 55.4 °F 47% 29.94 in 10.0 mi SE 3.5 mph - N/A   Partly Cloudy
1:15 AM 75.2 °F - 55.4 °F 50% 29.94 in 10.0 mi South 8.1 mph - N/A   Scattered Clouds
1:35 AM 73.4 °F - 53.6 °F 50% 29.94 in 10.0 mi North 9.2 mph - N/A   Overcast
1:55 AM 75.2 °F - 55.4 °F 50% 29.93 in 10.0 mi NNW 6.9 mph - N/A   Scattered Clouds
2:15 AM 73.4 °F - 53.6 °F 50% 29.93 in 10.0 mi Calm Calm - N/A   Clear
2:35 AM 73.4 °F - 55.4 °F 53% 29.93 in 10.0 mi South 4.6 mph - N/A   Clear
2:55 AM 73.4 °F - 55.4 °F 53% 29.92 in 10.0 mi SE 4.6 mph - N/A   Clear
3:15 AM 71.6 °F - 55.4 °F 57% 29.93 in 10.0 mi NNE 6.9 mph - N/A   Clear
3:35 AM 71.6 °F - 55.4 °F 57% 29.93 in 10.0 mi NE 4.6 mph - N/A   Scattered Clouds
3:55 AM 71.6 °F - 55.4 °F 57% 29.93 in 10.0 mi East 6.9 mph - N/A   Scattered Clouds
4:35 AM 71.6 °F - 55.4 °F 57% 29.93 in 10.0 mi South 5.8 mph - N/A   Partly Cloudy
4:55 AM 69.8 °F - 55.4 °F 60% 29.93 in 10.0 mi NNW 3.5 mph - N/A   Partly Cloudy
5:15 AM 69.8 °F - 55.4 °F 60% 29.93 in 10.0 mi Calm Calm - N/A   Clear
5:35 AM 71.6 °F - 55.4 °F 57% 29.93 in 10.0 mi North 8.1 mph - N/A   Clear
5:55 AM 69.8 °F - 55.4 °F 60% 29.93 in 10.0 mi NW 4.6 mph - N/A   Clear
6:15 AM 69.8 °F - 55.4 °F 60% 29.93 in 10.0 mi North 3.5 mph - N/A   Clear
6:35 AM 69.8 °F - 55.4 °F 60% 29.92 in 10.0 mi Calm Calm - N/A   Clear
6:55 AM 69.8 °F - 55.4 °F 60% 29.93 in 10.0 mi SSW 5.8 mph - N/A   Clear
7:15 AM 69.8 °F - 55.4 °F 60% 29.95 in 10.0 mi NE 6.9 mph - N/A   Clear
7:35 AM 69.8 °F - 55.4 °F 60% 29.94 in 10.0 mi NE 9.2 mph - N/A   Clear
7:55 AM 69.8 °F - 57.2 °F 64% 29.95 in 10.0 mi NNE 4.6 mph - N/A   Clear
8:15 AM 69.8 °F - 57.2 °F 64% 29.95 in 10.0 mi NE 5.8 mph - N/A   Clear
8:35 AM 71.6 °F - 57.2 °F 60% 29.95 in 10.0 mi NNE 5.8 mph - N/A   Clear
8:55 AM 73.4 °F - 57.2 °F 57% 29.96 in 10.0 mi NNW 4.6 mph - N/A   Clear
9:15 AM 77.0 °F - 57.2 °F 50% 29.97 in 10.0 mi SSE 4.6 mph - N/A   Clear
9:55 AM 78.8 °F - 57.2 °F 47% 29.97 in 10.0 mi Calm Calm - N/A   Clear
10:15 AM 80.6 °F 80.8 °F 57.2 °F 45% 29.97 in 10.0 mi East 4.6 mph - N/A   Clear
10:35 AM 80.6 °F 80.8 °F 57.2 °F 45% 29.98 in 10.0 mi East 3.5 mph - N/A   Clear
10:55 AM 82.4 °F 82.0 °F 57.2 °F 42% 29.98 in 10.0 mi SSE 8.1 mph - N/A   Clear
11:15 AM 84.2 °F 83.5 °F 57.2 °F 40% 29.97 in 10.0 mi SSE 4.6 mph - N/A   Clear
11:35 AM 84.2 °F 83.8 °F 59.0 °F 42% 29.97 in 10.0 mi SE 5.8 mph - N/A   Clear
11:55 AM 86.0 °F 84.9 °F 57.2 °F 37% 29.98 in 10.0 mi SE 9.2 mph - N/A   Clear
12:35 PM 89.6 °F 88.1 °F 57.2 °F 33% 29.97 in 10.0 mi South 9.2 mph - N/A   Clear
1:35 PM 93.2 °F 91.9 °F 57.2 °F 30% 29.97 in 10.0 mi SSW 13.8 mph - N/A   Clear
1:55 PM 93.2 °F 91.3 °F 55.4 °F 28% 29.97 in 10.0 mi South 9.2 mph 17.3 mph N/A   Clear
2:15 PM 93.2 °F 91.3 °F 55.4 °F 28% 29.97 in 10.0 mi SSE 10.4 mph 16.1 mph N/A   Clear
2:35 PM 96.8 °F 95.8 °F 57.2 °F 27% 29.96 in 10.0 mi SSW 12.7 mph 18.4 mph N/A   Clear
2:55 PM 96.8 °F 95.1 °F 55.4 °F 25% 29.96 in 10.0 mi SSW 10.4 mph - N/A   Clear
3:15 PM 96.8 °F 95.1 °F 55.4 °F 25% 29.96 in 10.0 mi SSW 12.7 mph 17.3 mph N/A   Clear
3:35 PM 93.2 °F 90.8 °F 53.6 °F 26% 29.96 in 10.0 mi SSW 9.2 mph - N/A   Clear
3:55 PM 93.2 °F - 51.8 °F 24% 29.96 in 10.0 mi South 9.2 mph - N/A   Clear
4:15 PM 93.2 °F - 51.8 °F 24% 29.96 in 10.0 mi NE 3.5 mph - N/A   Clear
4:35 PM 95.0 °F - 50.0 °F 22% 29.96 in 10.0 mi South 8.1 mph - N/A   Clear
4:55 PM 93.2 °F - 46.4 °F 20% 29.97 in 10.0 mi South 5.8 mph - N/A   Clear
5:15 PM 93.2 °F - 44.6 °F 19% 29.97 in 10.0 mi South 9.2 mph - N/A   Clear
5:55 PM 93.2 °F - 48.2 °F 21% 29.97 in 10.0 mi SSE 4.6 mph - N/A   Clear
6:15 PM 91.4 °F - 50.0 °F 24% 29.97 in 10.0 mi South 5.8 mph - N/A   Clear
6:55 PM 89.6 °F - 51.8 °F 27% 29.97 in 10.0 mi SSW 4.6 mph - N/A   Clear
7:15 PM 87.8 °F - 51.8 °F 29% 29.97 in 10.0 mi SSW 3.5 mph - N/A   Clear
7:35 PM 87.8 °F - 51.8 °F 29% 29.97 in 10.0 mi SSE 3.5 mph - N/A   Clear
7:55 PM 86.0 °F - 51.8 °F 31% 29.97 in 10.0 mi Calm Calm - N/A   Clear
8:35 PM 80.6 °F - 48.2 °F 32% 29.99 in 10.0 mi East 8.1 mph - N/A   Clear
8:55 PM 82.4 °F - 48.2 °F 30% 29.99 in 10.0 mi ESE 9.2 mph - N/A   Clear
9:15 PM 80.6 °F - 46.4 °F 30% 30.00 in 10.0 mi ESE 6.9 mph - N/A   Clear
9:35 PM 75.2 °F - 46.4 °F 36% 30.01 in 10.0 mi NNE 8.1 mph - N/A   Clear
10:15 PM 75.2 °F - 46.4 °F 36% 30.02 in 10.0 mi NE 5.8 mph - N/A   Clear
10:35 PM 73.4 °F - 46.4 °F 38% 30.02 in 10.0 mi NE 6.9 mph - N/A   Clear
10:55 PM 73.4 °F - 44.6 °F 36% 30.02 in 10.0 mi ENE 8.1 mph - N/A   Clear
11:15 PM 75.2 °F - 44.6 °F 34% 30.03 in 10.0 mi East 6.9 mph - N/A   Clear
11:35 PM 75.2 °F - 46.4 °F 36% 30.04 in 10.0 mi Calm Calm - N/A   Clear
11:55 PM 73.4 °F - 46.4 °F 38% 30.04 in 10.0 mi Calm Calm - N/A   Clear